Location: Goettingen
(51.5300°N, 9.9433°E)
Time: 10:36:17
(UTC+02:00)

ISS - Pass Details

Date: 23 May 2019
Orbit: 407 x 410 km, 51.6° (Epoch: 21 May)

Event Time Altitude Azimuth Distance (km) Brightness Sun altitude
Rises 01:53:43 0° 284° (WNW) 2,338 0.1 -17.5°
Reaches altitude 10° 01:55:53 10° 276° (W) 1,475 -1.0 -17.5°
Enters shadow 01:57:13 21° 262° (W) 996 -2.0 -17.4°
